contact:dominique.lefevre@mio.osupytheas.fr, maurice.libes@osupytheas.fr, didier.mallarino@osupytheas.fr
Project:EMSO http://www.emso-fr.org/EMSO-France
Depth: 2436.0 m
Title:EMSO Ligure Ouest : Data MII capteur CSTAR
DateTime,Latitude,Longitude,Instrument_Serial,Reference_Counts,Signal_Counts,Corrected_Signal_raw_counts,Calculated_Beam_c_inverse_meters,Internal_thermistor_counts
DateTime,Latitude,Longitude,Instrument_Serial,Reference_Counts,Signal_Counts,Corrected_Signal_raw_counts,Calculated_Beam_c_inverse_meters,Internal_thermistor_counts
2019-12-14T00:02:08,42.805,6.029,CST-1368DR,7166,10043,15286,0.085,551
2019-12-14T00:05:10,42.805,6.029,CST-1368DR,7166,10043,15287,0.085,551
2019-12-14T00:08:11,42.805,6.029,CST-1368DR,7166,10043,15286,0.085,551
2019-12-14T00:11:13,42.805,6.029,CST-1368DR,7166,10043,15287,0.085,551
2019-12-14T00:14:14,42.805,6.029,CST-1368DR,7165,10041,15286,0.085,551
2019-12-14T00:17:16,42.805,6.029,CST-1368DR,7165,10042,15287,0.085,551
2019-12-14T00:20:18,42.805,6.029,CST-1368DR,7165,10043,15289,0.085,551
2019-12-14T00:23:19,42.805,6.029,CST-1368DR,7165,10043,15288,0.085,551
2019-12-14T00:26:21,42.805,6.029,CST-1368DR,7165,10043,15288,0.085,551
2019-12-14T00:29:23,42.805,6.029,CST-1368DR,7165,10043,15289,0.085,551
2019-12-14T00:32:24,42.805,6.029,CST-1368DR,7165,10043,15289,0.085,551
2019-12-14T00:35:26,42.805,6.029,CST-1368DR,7165,10043,15288,0.085,551
2019-12-14T00:38:27,42.805,6.029,CST-1368DR,7166,10043,15286,0.085,551
2019-12-14T00:41:29,42.805,6.029,CST-1368DR,7165,10042,15288,0.085,551
2019-12-14T00:44:31,42.805,6.029,CST-1368DR,7165,10042,15287,0.085,551
2019-12-14T00:47:32,42.805,6.029,CST-1368DR,7166,10042,15286,0.085,551
2019-12-14T00:50:34,42.805,6.029,CST-1368DR,7165,10042,15287,0.085,550
2019-12-14T00:53:35,42.805,6.029,CST-1368DR,7165,10042,15287,0.085,551
2019-12-14T00:56:37,42.805,6.029,CST-1368DR,7165,10043,15288,0.085,551
2019-12-14T00:59:39,42.805,6.029,CST-1368DR,7165,10042,15287,0.085,551
2019-12-14T01:02:40,42.805,6.029,CST-1368DR,7165,10042,15288,0.085,551
2019-12-14T01:05:42,42.805,6.029,CST-1368DR,7165,10042,15288,0.085,551
2019-12-14T01:08:44,42.805,6.029,CST-1368DR,7165,10042,15287,0.085,551
2019-12-14T01:11:45,42.805,6.029,CST-1368DR,7165,10043,15289,0.085,551
2019-12-14T01:14:47,42.805,6.029,CST-1368DR,7165,10041,15285,0.086,550
2019-12-14T01:17:48,42.805,6.029,CST-1368DR,7165,10041,15286,0.085,551
2019-12-14T01:20:50,42.805,6.029,CST-1368DR,7165,10041,15285,0.086,551
2019-12-14T01:23:52,42.805,6.029,CST-1368DR,7165,10043,15288,0.085,551
2019-12-14T01:26:53,42.805,6.029,CST-1368DR,7165,10041,15286,0.085,551
2019-12-14T01:29:55,42.805,6.029,CST-1368DR,7165,10042,15288,0.085,551
2019-12-14T01:32:57,42.805,6.029,CST-1368DR,7165,10042,15287,0.085,551
2019-12-14T01:35:58,42.805,6.029,CST-1368DR,7165,10037,15280,0.087,550
2019-12-14T01:39:00,42.805,6.029,CST-1368DR,7165,10042,15287,0.085,551
2019-12-14T01:42:01,42.805,6.029,CST-1368DR,7165,10041,15286,0.085,551
2019-12-14T01:45:03,42.805,6.029,CST-1368DR,7165,10041,15285,0.086,551
2019-12-14T01:48:05,42.805,6.029,CST-1368DR,7165,10042,15287,0.085,551
2019-12-14T01:51:06,42.805,6.029,CST-1368DR,7165,10041,15286,0.085,551
2019-12-14T01:54:08,42.805,6.029,CST-1368DR,7165,10041,15286,0.085,551
2019-12-14T01:57:09,42.805,6.029,CST-1368DR,7165,10041,15285,0.086,551
2019-12-14T02:00:11,42.805,6.029,CST-1368DR,7165,10041,15286,0.085,551
2019-12-14T02:03:13,42.805,6.029,CST-1368DR,7165,10039,15283,0.086,551
2019-12-14T02:06:14,42.805,6.029,CST-1368DR,7165,10040,15284,0.086,551
2019-12-14T02:09:16,42.805,6.029,CST-1368DR,7165,10041,15286,0.085,551
2019-12-14T02:12:18,42.805,6.029,CST-1368DR,7165,10041,15286,0.085,551
2019-12-14T02:15:19,42.805,6.029,CST-1368DR,7165,10042,15287,0.085,551
2019-12-14T02:18:21,42.805,6.029,CST-1368DR,7165,10042,15287,0.085,551
2019-12-14T02:21:23,42.805,6.029,CST-1368DR,7165,10041,15286,0.085,551
2019-12-14T02:24:24,42.805,6.029,CST-1368DR,7165,10041,15286,0.085,551
2019-12-14T02:27:26,42.805,6.029,CST-1368DR,7165,10041,15285,0.086,551
2019-12-14T02:30:27,42.805,6.029,CST-1368DR,7165,10041,15286,0.085,551
2019-12-14T02:33:29,42.805,6.029,CST-1368DR,7165,10042,15287,0.085,551
2019-12-14T02:36:31,42.805,6.029,CST-1368DR,7165,10041,15285,0.086,551
2019-12-14T02:39:32,42.805,6.029,CST-1368DR,7165,10041,15286,0.085,551
2019-12-14T02:42:34,42.805,6.029,CST-1368DR,7165,10041,15286,0.085,551
2019-12-14T02:45:35,42.805,6.029,CST-1368DR,7165,10041,15286,0.085,551
2019-12-14T02:48:37,42.805,6.029,CST-1368DR,7165,10041,15286,0.085,551
2019-12-14T02:51:39,42.805,6.029,CST-1368DR,7165,10041,15286,0.085,550
2019-12-14T02:54:40,42.805,6.029,CST-1368DR,7165,10041,15286,0.085,551
2019-12-14T02:57:42,42.805,6.029,CST-1368DR,7165,10039,15282,0.086,551
2019-12-14T03:00:44,42.805,6.029,CST-1368DR,7165,10036,15278,0.088,551
2019-12-14T03:03:45,42.805,6.029,CST-1368DR,7165,10041,15285,0.086,551
2019-12-14T03:06:47,42.805,6.029,CST-1368DR,7165,10041,15285,0.086,551
2019-12-14T03:09:49,42.805,6.029,CST-1368DR,7165,10039,15283,0.086,551
2019-12-14T03:12:50,42.805,6.029,CST-1368DR,7165,10041,15286,0.085,551
2019-12-14T03:15:52,42.805,6.029,CST-1368DR,7165,10042,15287,0.085,551
2019-12-14T03:18:53,42.805,6.029,CST-1368DR,7165,10041,15286,0.085,551
2019-12-14T03:21:55,42.805,6.029,CST-1368DR,7165,10041,15286,0.085,551
2019-12-14T03:24:57,42.805,6.029,CST-1368DR,7165,10040,15284,0.086,550
2019-12-14T03:27:58,42.805,6.029,CST-1368DR,7165,10040,15285,0.086,551
2019-12-14T03:31:00,42.805,6.029,CST-1368DR,7165,10041,15286,0.085,551
2019-12-14T03:34:02,42.805,6.029,CST-1368DR,7165,10037,15280,0.087,551
2019-12-14T03:37:03,42.805,6.029,CST-1368DR,7165,10040,15284,0.086,551
2019-12-14T03:40:05,42.805,6.029,CST-1368DR,7165,10040,15284,0.086,551
2019-12-14T03:43:06,42.805,6.029,CST-1368DR,7165,10040,15284,0.086,551
2019-12-14T03:46:08,42.805,6.029,CST-1368DR,7165,10040,15284,0.086,551
2019-12-14T03:49:10,42.805,6.029,CST-1368DR,7165,10040,15285,0.086,550
2019-12-14T03:52:11,42.805,6.029,CST-1368DR,7165,10041,15286,0.085,551
2019-12-14T03:55:13,42.805,6.029,CST-1368DR,7165,10040,15284,0.086,551
2019-12-14T03:58:15,42.805,6.029,CST-1368DR,7165,10040,15284,0.086,550
2019-12-14T04:01:16,42.805,6.029,CST-1368DR,7164,10039,15285,0.086,551
2019-12-14T04:04:18,42.805,6.029,CST-1368DR,7164,10039,15285,0.086,551
2019-12-14T04:07:20,42.805,6.029,CST-1368DR,7165,10039,15282,0.086,551
2019-12-14T04:10:21,42.805,6.029,CST-1368DR,7165,10039,15282,0.086,551
2019-12-14T04:13:23,42.805,6.029,CST-1368DR,7165,10039,15283,0.086,551
2019-12-14T04:16:24,42.805,6.029,CST-1368DR,7165,10040,15284,0.086,551
2019-12-14T04:19:26,42.805,6.029,CST-1368DR,7164,10040,15286,0.085,551
2019-12-14T04:22:28,42.805,6.029,CST-1368DR,7164,10039,15285,0.086,551
2019-12-14T04:25:30,42.805,6.029,CST-1368DR,7165,10039,15283,0.086,551
2019-12-14T04:28:31,42.805,6.029,CST-1368DR,7165,10040,15284,0.086,551
2019-12-14T04:31:33,42.805,6.029,CST-1368DR,7164,10039,15285,0.086,551
2019-12-14T04:34:34,42.805,6.029,CST-1368DR,7164,10038,15283,0.086,551
2019-12-14T04:37:36,42.805,6.029,CST-1368DR,7164,10039,15285,0.086,551
2019-12-14T04:40:38,42.805,6.029,CST-1368DR,7164,10039,15285,0.086,551
2019-12-14T04:43:39,42.805,6.029,CST-1368DR,7164,10039,15285,0.086,550
2019-12-14T04:46:41,42.805,6.029,CST-1368DR,7164,10039,15285,0.086,551
2019-12-14T04:49:43,42.805,6.029,CST-1368DR,7164,10039,15285,0.086,551
2019-12-14T04:52:44,42.805,6.029,CST-1368DR,7164,10038,15283,0.086,551
2019-12-14T04:55:46,42.805,6.029,CST-1368DR,7164,10038,15284,0.086,551
2019-12-14T04:58:48,42.805,6.029,CST-1368DR,7164,10039,15285,0.086,551
2019-12-14T05:01:49,42.805,6.029,CST-1368DR,7164,10039,15284,0.086,551
2019-12-14T05:04:51,42.805,6.029,CST-1368DR,7164,10038,15283,0.086,551
2019-12-14T05:07:52,42.805,6.029,CST-1368DR,7164,10038,15283,0.086,551
2019-12-14T05:10:54,42.805,6.029,CST-1368DR,7164,10039,15285,0.086,551
2019-12-14T05:13:56,42.805,6.029,CST-1368DR,7164,10036,15280,0.087,550
2019-12-14T05:16:57,42.805,6.029,CST-1368DR,7164,10039,15284,0.086,551
2019-12-14T05:19:59,42.805,6.029,CST-1368DR,7164,10039,15285,0.086,551
2019-12-14T05:23:01,42.805,6.029,CST-1368DR,7164,10038,15283,0.086,551
2019-12-14T05:26:02,42.805,6.029,CST-1368DR,7164,10038,15283,0.086,551
2019-12-14T05:29:04,42.805,6.029,CST-1368DR,7164,10039,15284,0.086,551
2019-12-14T05:32:06,42.805,6.029,CST-1368DR,7164,10039,15284,0.086,551
2019-12-14T05:35:07,42.805,6.029,CST-1368DR,7164,10039,15284,0.086,550
2019-12-14T05:38:09,42.805,6.029,CST-1368DR,7164,10039,15284,0.086,551
2019-12-14T05:41:11,42.805,6.029,CST-1368DR,7164,10036,15281,0.087,551
2019-12-14T05:44:12,42.805,6.029,CST-1368DR,7164,10038,15284,0.086,551
2019-12-14T05:47:14,42.805,6.029,CST-1368DR,7164,10038,15283,0.086,551
2019-12-14T05:50:16,42.805,6.029,CST-1368DR,7164,10039,15284,0.086,551
2019-12-14T05:53:17,42.805,6.029,CST-1368DR,7164,10040,15287,0.085,550
2019-12-14T05:56:19,42.805,6.029,CST-1368DR,7164,10038,15283,0.086,551
2019-12-14T05:59:20,42.805,6.029,CST-1368DR,7164,10039,15285,0.086,551
2019-12-14T06:02:22,42.805,6.029,CST-1368DR,7164,10038,15283,0.086,551
2019-12-14T06:05:24,42.805,6.029,CST-1368DR,7164,10039,15284,0.086,551
2019-12-14T06:08:25,42.805,6.029,CST-1368DR,7164,10039,15284,0.086,551
2019-12-14T06:11:27,42.805,6.029,CST-1368DR,7164,10035,15279,0.087,551
2019-12-14T06:14:29,42.805,6.029,CST-1368DR,7164,10039,15285,0.086,551
2019-12-14T06:17:30,42.805,6.029,CST-1368DR,7164,10038,15283,0.086,551
2019-12-14T06:20:32,42.805,6.029,CST-1368DR,7164,10038,15284,0.086,551
2019-12-14T06:23:33,42.805,6.029,CST-1368DR,7164,10035,15279,0.087,551
2019-12-14T06:26:35,42.805,6.029,CST-1368DR,7164,10038,15284,0.086,551
2019-12-14T06:29:37,42.805,6.029,CST-1368DR,7164,10034,15277,0.088,551
2019-12-14T06:32:38,42.805,6.029,CST-1368DR,7164,10038,15284,0.086,551
2019-12-14T06:35:40,42.805,6.029,CST-1368DR,7164,10037,15281,0.087,551
2019-12-14T06:38:42,42.805,6.029,CST-1368DR,7164,10038,15283,0.086,551
2019-12-14T06:41:43,42.805,6.029,CST-1368DR,7164,10036,15281,0.087,551
2019-12-14T06:44:45,42.805,6.029,CST-1368DR,7164,10037,15282,0.086,551
2019-12-14T06:47:46,42.805,6.029,CST-1368DR,7164,10037,15282,0.086,551
2019-12-14T06:50:48,42.805,6.029,CST-1368DR,7164,10037,15281,0.087,551
2019-12-14T06:53:50,42.805,6.029,CST-1368DR,7164,10036,15281,0.087,551
2019-12-14T06:56:51,42.805,6.029,CST-1368DR,7164,10037,15282,0.086,551
2019-12-14T06:59:53,42.805,6.029,CST-1368DR,7164,10036,15280,0.087,551
2019-12-14T07:02:54,42.805,6.029,CST-1368DR,7164,10035,15278,0.088,551
2019-12-14T07:05:56,42.805,6.029,CST-1368DR,7164,10037,15281,0.087,550
2019-12-14T07:08:58,42.805,6.029,CST-1368DR,7164,10036,15280,0.087,551
2019-12-14T07:11:59,42.805,6.029,CST-1368DR,7164,10035,15279,0.087,551
2019-12-14T07:15:01,42.805,6.029,CST-1368DR,7164,10035,15278,0.088,550
2019-12-14T07:18:03,42.805,6.029,CST-1368DR,7163,10035,15281,0.087,551
2019-12-14T07:21:04,42.805,6.029,CST-1368DR,7163,10036,15282,0.086,551
2019-12-14T07:24:06,42.805,6.029,CST-1368DR,7163,10034,15279,0.087,551
2019-12-14T07:27:07,42.805,6.029,CST-1368DR,7163,10037,15284,0.086,551
2019-12-14T07:30:09,42.805,6.029,CST-1368DR,7163,10038,15285,0.086,551
2019-12-14T07:33:11,42.805,6.029,CST-1368DR,7163,10036,15282,0.086,551
2019-12-14T07:36:12,42.805,6.029,CST-1368DR,7163,10036,15283,0.086,551
2019-12-14T07:39:14,42.805,6.029,CST-1368DR,7163,10038,15285,0.086,551
2019-12-14T07:42:16,42.805,6.029,CST-1368DR,7163,10037,15284,0.086,551
2019-12-14T07:45:17,42.805,6.029,CST-1368DR,7163,10036,15283,0.086,551
2019-12-14T07:48:19,42.805,6.029,CST-1368DR,7163,10037,15283,0.086,551
2019-12-14T07:51:20,42.805,6.029,CST-1368DR,7163,10038,15285,0.086,551
2019-12-14T07:54:22,42.805,6.029,CST-1368DR,7163,10035,15281,0.087,551
2019-12-14T07:57:24,42.805,6.029,CST-1368DR,7163,10038,15285,0.086,551
2019-12-14T08:00:25,42.805,6.029,CST-1368DR,7163,10038,15285,0.086,551
2019-12-14T08:03:27,42.805,6.029,CST-1368DR,7163,10038,15286,0.085,551
2019-12-14T08:06:28,42.805,6.029,CST-1368DR,7163,10037,15283,0.086,551
2019-12-14T08:09:30,42.805,6.029,CST-1368DR,7163,10037,15284,0.086,551
2019-12-14T08:12:32,42.805,6.029,CST-1368DR,7163,10038,15285,0.086,551
2019-12-14T08:15:33,42.805,6.029,CST-1368DR,7163,10037,15284,0.086,551
2019-12-14T08:18:35,42.805,6.029,CST-1368DR,7163,10036,15282,0.086,551
2019-12-14T08:21:37,42.805,6.029,CST-1368DR,7163,10037,15284,0.086,551
2019-12-14T08:24:38,42.805,6.029,CST-1368DR,7163,10035,15280,0.087,551
2019-12-14T08:27:41,42.805,6.029,CST-1368DR,7163,10036,15282,0.086,551
2019-12-14T08:30:42,42.805,6.029,CST-1368DR,7163,10036,15283,0.086,551
2019-12-14T08:33:44,42.805,6.029,CST-1368DR,7163,10038,15285,0.086,551
2019-12-14T08:36:46,42.805,6.029,CST-1368DR,7163,10036,15282,0.086,550
2019-12-14T08:39:47,42.805,6.029,CST-1368DR,7163,10035,15280,0.087,551
2019-12-14T08:42:49,42.805,6.029,CST-1368DR,7163,10037,15284,0.086,551
2019-12-14T08:45:51,42.805,6.029,CST-1368DR,7163,10037,15284,0.086,551
2019-12-14T08:48:52,42.805,6.029,CST-1368DR,7163,10037,15284,0.086,551
2019-12-14T08:51:54,42.805,6.029,CST-1368DR,7163,10037,15283,0.086,551
2019-12-14T08:54:56,42.805,6.029,CST-1368DR,7163,10035,15281,0.087,551
2019-12-14T08:57:57,42.805,6.029,CST-1368DR,7163,10036,15282,0.086,551
2019-12-14T09:00:59,42.805,6.029,CST-1368DR,7163,10037,15283,0.086,551
2019-12-14T09:04:01,42.805,6.029,CST-1368DR,7163,10036,15283,0.086,551
2019-12-14T09:07:02,42.805,6.029,CST-1368DR,7163,10037,15284,0.086,551
2019-12-14T09:10:04,42.805,6.029,CST-1368DR,7163,10036,15283,0.086,551
2019-12-14T09:13:05,42.805,6.029,CST-1368DR,7163,10037,15283,0.086,551
2019-12-14T09:16:07,42.805,6.029,CST-1368DR,7163,10035,15281,0.087,551
2019-12-14T09:19:09,42.805,6.029,CST-1368DR,7163,10036,15282,0.086,551
2019-12-14T09:22:10,42.805,6.029,CST-1368DR,7163,10036,15282,0.086,551
2019-12-14T09:25:12,42.805,6.029,CST-1368DR,7163,10035,15281,0.087,551
2019-12-14T09:28:14,42.805,6.029,CST-1368DR,7163,10036,15283,0.086,551
2019-12-14T09:31:16,42.805,6.029,CST-1368DR,7163,10036,15282,0.086,551
2019-12-14T09:34:17,42.805,6.029,CST-1368DR,7163,10033,15278,0.088,551
2019-12-14T09:37:19,42.805,6.029,CST-1368DR,7163,10036,15282,0.086,551
2019-12-14T09:40:21,42.805,6.029,CST-1368DR,7163,10035,15280,0.087,551
2019-12-14T09:43:22,42.805,6.029,CST-1368DR,7163,10034,15279,0.087,551
2019-12-14T09:46:24,42.805,6.029,CST-1368DR,7163,10034,15279,0.087,551
2019-12-14T09:49:26,42.805,6.029,CST-1368DR,7163,10036,15283,0.086,551
2019-12-14T09:52:27,42.805,6.029,CST-1368DR,7163,10035,15280,0.087,551
2019-12-14T09:55:29,42.805,6.029,CST-1368DR,7163,10028,15270,0.090,551
2019-12-14T09:58:31,42.805,6.029,CST-1368DR,7163,10036,15282,0.086,551
2019-12-14T10:01:32,42.805,6.029,CST-1368DR,7163,10036,15282,0.086,551
2019-12-14T10:04:34,42.805,6.029,CST-1368DR,7163,10036,15282,0.086,551
2019-12-14T10:07:36,42.805,6.029,CST-1368DR,7163,10034,15280,0.087,551
2019-12-14T10:10:37,42.805,6.029,CST-1368DR,7163,10036,15282,0.086,551
2019-12-14T10:13:39,42.805,6.029,CST-1368DR,7163,10035,15281,0.087,551
2019-12-14T10:16:41,42.805,6.029,CST-1368DR,7163,10036,15282,0.086,551
2019-12-14T10:19:42,42.805,6.029,CST-1368DR,7163,10036,15282,0.086,551
2019-12-14T10:22:44,42.805,6.029,CST-1368DR,7163,10036,15282,0.086,551
2019-12-14T10:25:45,42.805,6.029,CST-1368DR,7163,10036,15282,0.086,551
2019-12-14T10:28:47,42.805,6.029,CST-1368DR,7162,10035,15283,0.086,550
2019-12-14T10:31:49,42.805,6.029,CST-1368DR,7163,10035,15281,0.087,551
2019-12-14T10:34:50,42.805,6.029,CST-1368DR,7162,10036,15285,0.086,551
2019-12-14T10:37:52,42.805,6.029,CST-1368DR,7162,10035,15283,0.086,551
2019-12-14T10:40:54,42.805,6.029,CST-1368DR,7163,10036,15282,0.086,551
2019-12-14T10:43:55,42.805,6.029,CST-1368DR,7162,10035,15282,0.086,551
2019-12-14T10:46:57,42.805,6.029,CST-1368DR,7163,10036,15282,0.086,551
2019-12-14T10:49:58,42.805,6.029,CST-1368DR,7163,10034,15278,0.088,551
2019-12-14T10:53:00,42.805,6.029,CST-1368DR,7163,10035,15280,0.087,551
2019-12-14T10:56:02,42.805,6.029,CST-1368DR,7162,10036,15285,0.086,551
2019-12-14T10:59:03,42.805,6.029,CST-1368DR,7162,10036,15284,0.086,550
2019-12-14T11:02:05,42.805,6.029,CST-1368DR,7162,10036,15284,0.086,551
2019-12-14T11:05:06,42.805,6.029,CST-1368DR,7162,10036,15284,0.086,551
2019-12-14T11:08:08,42.805,6.029,CST-1368DR,7162,10034,15281,0.087,551
2019-12-14T11:11:10,42.805,6.029,CST-1368DR,7162,10036,15284,0.086,551
2019-12-14T11:14:11,42.805,6.029,CST-1368DR,7162,10035,15282,0.086,551
2019-12-14T11:17:13,42.805,6.029,CST-1368DR,7162,10031,15277,0.088,551
2019-12-14T11:20:15,42.805,6.029,CST-1368DR,7162,10036,15284,0.086,551
2019-12-14T11:23:16,42.805,6.029,CST-1368DR,7162,10036,15284,0.086,551
2019-12-14T11:26:18,42.805,6.029,CST-1368DR,7162,10035,15283,0.086,551
2019-12-14T11:29:19,42.805,6.029,CST-1368DR,7162,10037,15286,0.085,551
2019-12-14T11:32:21,42.805,6.029,CST-1368DR,7162,10036,15284,0.086,551
2019-12-14T11:35:23,42.805,6.029,CST-1368DR,7162,10036,15284,0.086,551
2019-12-14T11:38:24,42.805,6.029,CST-1368DR,7162,10036,15285,0.086,551
2019-12-14T11:41:26,42.805,6.029,CST-1368DR,7162,10036,15284,0.086,551
2019-12-14T11:44:28,42.805,6.029,CST-1368DR,7162,10036,15285,0.086,551
2019-12-14T11:47:29,42.805,6.029,CST-1368DR,7162,10037,15285,0.086,551
2019-12-14T11:50:31,42.805,6.029,CST-1368DR,7162,10036,15284,0.086,551
2019-12-14T11:53:33,42.805,6.029,CST-1368DR,7162,10037,15285,0.086,551
2019-12-14T11:56:34,42.805,6.029,CST-1368DR,7162,10035,15283,0.086,551
2019-12-14T11:59:36,42.805,6.029,CST-1368DR,7162,10036,15284,0.086,551
2019-12-14T12:02:38,42.805,6.029,CST-1368DR,7162,10036,15284,0.086,551
2019-12-14T12:05:39,42.805,6.029,CST-1368DR,7162,10036,15284,0.086,551
2019-12-14T12:08:41,42.805,6.029,CST-1368DR,7162,10034,15281,0.087,551
2019-12-14T12:11:43,42.805,6.029,CST-1368DR,7162,10035,15282,0.086,551
2019-12-14T12:14:44,42.805,6.029,CST-1368DR,7162,10035,15283,0.086,551
2019-12-14T12:17:46,42.805,6.029,CST-1368DR,7162,10035,15282,0.086,551
2019-12-14T12:20:48,42.805,6.029,CST-1368DR,7162,10036,15284,0.086,551
2019-12-14T12:23:49,42.805,6.029,CST-1368DR,7162,10035,15282,0.086,551
2019-12-14T12:26:51,42.805,6.029,CST-1368DR,7162,10036,15284,0.086,551
2019-12-14T12:29:53,42.805,6.029,CST-1368DR,7162,10032,15279,0.087,551
2019-12-14T12:32:55,42.805,6.029,CST-1368DR,7162,10034,15280,0.087,551
2019-12-14T12:35:56,42.805,6.029,CST-1368DR,7162,10036,15284,0.086,551
2019-12-14T12:38:58,42.805,6.029,CST-1368DR,7162,10032,15279,0.087,551
2019-12-14T12:42:00,42.805,6.029,CST-1368DR,7162,10034,15281,0.087,551
2019-12-14T12:45:01,42.805,6.029,CST-1368DR,7162,10034,15280,0.087,551
2019-12-14T12:48:03,42.805,6.029,CST-1368DR,7162,10035,15283,0.086,551
2019-12-14T12:51:04,42.805,6.029,CST-1368DR,7162,10033,15279,0.087,551
2019-12-14T12:54:06,42.805,6.029,CST-1368DR,7162,10033,15279,0.087,551
2019-12-14T12:57:08,42.805,6.029,CST-1368DR,7162,10035,15282,0.086,551
2019-12-14T13:00:09,42.805,6.029,CST-1368DR,7162,10036,15285,0.086,551
2019-12-14T13:03:11,42.805,6.029,CST-1368DR,7162,10035,15282,0.086,551
2019-12-14T13:06:13,42.805,6.029,CST-1368DR,7162,10036,15284,0.086,551
2019-12-14T13:09:14,42.805,6.029,CST-1368DR,7162,10034,15282,0.086,551
2019-12-14T13:12:16,42.805,6.029,CST-1368DR,7162,10031,15276,0.088,551
2019-12-14T13:15:18,42.805,6.029,CST-1368DR,7162,10035,15283,0.086,551
2019-12-14T13:18:19,42.805,6.029,CST-1368DR,7162,10034,15280,0.087,551
2019-12-14T13:21:21,42.805,6.029,CST-1368DR,7162,10036,15284,0.086,551
2019-12-14T13:24:23,42.805,6.029,CST-1368DR,7162,10031,15276,0.088,551
2019-12-14T13:27:24,42.805,6.029,CST-1368DR,7162,10034,15282,0.086,551
2019-12-14T13:30:26,42.805,6.029,CST-1368DR,7162,10032,15278,0.088,551
2019-12-14T13:33:27,42.805,6.029,CST-1368DR,7162,10034,15281,0.087,551
2019-12-14T13:36:29,42.805,6.029,CST-1368DR,7162,10034,15281,0.087,551
2019-12-14T13:39:31,42.805,6.029,CST-1368DR,7162,10029,15274,0.089,551
2019-12-14T13:42:32,42.805,6.029,CST-1368DR,7162,10032,15278,0.088,551
2019-12-14T13:45:34,42.805,6.029,CST-1368DR,7162,10035,15282,0.086,551
2019-12-14T13:48:36,42.805,6.029,CST-1368DR,7161,10032,15280,0.087,551
2019-12-14T13:51:37,42.805,6.029,CST-1368DR,7162,10034,15281,0.087,551
2019-12-14T13:54:39,42.805,6.029,CST-1368DR,7162,10035,15283,0.086,551
2019-12-14T13:57:40,42.805,6.029,CST-1368DR,7162,10035,15283,0.086,551
2019-12-14T14:00:42,42.805,6.029,CST-1368DR,7161,10034,15283,0.086,551
2019-12-14T14:03:44,42.805,6.029,CST-1368DR,7162,10035,15282,0.086,551
2019-12-14T14:06:45,42.805,6.029,CST-1368DR,7162,10032,15278,0.088,551
2019-12-14T14:09:47,42.805,6.029,CST-1368DR,7161,10032,15280,0.087,551
2019-12-14T14:12:49,42.805,6.029,CST-1368DR,7162,10032,15278,0.088,551
2019-12-14T14:15:50,42.805,6.029,CST-1368DR,7161,10033,15282,0.086,551
2019-12-14T14:18:52,42.805,6.029,CST-1368DR,7162,10034,15282,0.086,551
2019-12-14T14:21:53,42.805,6.029,CST-1368DR,7161,10034,15283,0.086,551
2019-12-14T14:24:55,42.805,6.029,CST-1368DR,7161,10032,15280,0.087,551
2019-12-14T14:27:57,42.805,6.029,CST-1368DR,7162,10034,15282,0.086,551
2019-12-14T14:30:58,42.805,6.029,CST-1368DR,7161,10034,15282,0.086,551
2019-12-14T14:34:00,42.805,6.029,CST-1368DR,7161,10034,15282,0.086,551
2019-12-14T14:37:02,42.805,6.029,CST-1368DR,7161,10034,15283,0.086,551
2019-12-14T14:40:03,42.805,6.029,CST-1368DR,7161,10034,15284,0.086,551
2019-12-14T14:43:05,42.805,6.029,CST-1368DR,7161,10034,15282,0.086,551
2019-12-14T14:46:07,42.805,6.029,CST-1368DR,7161,10035,15285,0.086,551
2019-12-14T14:49:08,42.805,6.029,CST-1368DR,7161,10034,15283,0.086,551
2019-12-14T14:52:10,42.805,6.029,CST-1368DR,7161,10034,15283,0.086,551
2019-12-14T14:55:12,42.805,6.029,CST-1368DR,7161,10034,15282,0.086,551
2019-12-14T14:58:13,42.805,6.029,CST-1368DR,7161,10032,15280,0.087,551
2019-12-14T15:01:15,42.805,6.029,CST-1368DR,7161,10033,15281,0.087,551
2019-12-14T15:04:17,42.805,6.029,CST-1368DR,7161,10032,15281,0.087,551
2019-12-14T15:07:18,42.805,6.029,CST-1368DR,7161,10031,15279,0.087,551
2019-12-14T15:10:20,42.805,6.029,CST-1368DR,7161,10033,15282,0.086,551
2019-12-14T15:13:21,42.805,6.029,CST-1368DR,7161,10034,15282,0.086,551
2019-12-14T15:16:23,42.805,6.029,CST-1368DR,7161,10032,15280,0.087,551
2019-12-14T15:19:25,42.805,6.029,CST-1368DR,7161,10034,15282,0.086,551
2019-12-14T15:22:26,42.805,6.029,CST-1368DR,7161,10032,15281,0.087,551
2019-12-14T15:25:28,42.805,6.029,CST-1368DR,7161,10033,15281,0.087,551
2019-12-14T15:28:30,42.805,6.029,CST-1368DR,7161,10032,15280,0.087,551
2019-12-14T15:31:31,42.805,6.029,CST-1368DR,7161,10033,15282,0.086,551
2019-12-14T15:34:33,42.805,6.029,CST-1368DR,7161,10034,15283,0.086,551
2019-12-14T15:37:35,42.805,6.029,CST-1368DR,7161,10032,15280,0.087,551
2019-12-14T15:40:36,42.805,6.029,CST-1368DR,7161,10034,15282,0.086,551
2019-12-14T15:43:38,42.805,6.029,CST-1368DR,7161,10033,15282,0.086,550
2019-12-14T15:46:40,42.805,6.029,CST-1368DR,7161,10032,15281,0.087,551
2019-12-14T15:49:42,42.805,6.029,CST-1368DR,7161,10033,15281,0.087,551
2019-12-14T15:52:43,42.805,6.029,CST-1368DR,7161,10031,15279,0.087,551
2019-12-14T15:55:45,42.805,6.029,CST-1368DR,7161,10033,15281,0.087,551
2019-12-14T15:58:46,42.805,6.029,CST-1368DR,7161,10032,15279,0.087,551
2019-12-14T16:01:48,42.805,6.029,CST-1368DR,7161,10032,15281,0.087,551
2019-12-14T16:04:50,42.805,6.029,CST-1368DR,7161,10032,15280,0.087,550
2019-12-14T16:07:51,42.805,6.029,CST-1368DR,7161,10033,15281,0.087,551
2019-12-14T16:10:53,42.805,6.029,CST-1368DR,7161,10030,15278,0.088,551
2019-12-14T16:13:54,42.805,6.029,CST-1368DR,7161,10032,15280,0.087,551
2019-12-14T16:16:56,42.805,6.029,CST-1368DR,7161,10033,15282,0.086,551
2019-12-14T16:19:58,42.805,6.029,CST-1368DR,7161,10032,15280,0.087,551
2019-12-14T16:22:59,42.805,6.029,CST-1368DR,7161,10033,15282,0.086,550
2019-12-14T16:26:01,42.805,6.029,CST-1368DR,7161,10032,15280,0.087,551
2019-12-14T16:29:03,42.805,6.029,CST-1368DR,7161,10031,15279,0.087,551
2019-12-14T16:32:04,42.805,6.029,CST-1368DR,7161,10032,15280,0.087,551
2019-12-14T16:35:06,42.805,6.029,CST-1368DR,7161,10031,15279,0.087,551
2019-12-14T16:38:07,42.805,6.029,CST-1368DR,7161,10032,15281,0.087,551